Location: Calvatone
(45.1167°N, 10.4333°E)
Time: 15:24:56
(UTC+00:00)

Cosmos 1697 Rocket - Pass Details

Date: 28 January 2023
Orbit: 834 x 841 km, 71.0° (Epoch: 30 March)

Event Time Altitude Azimuth Distance (km) Brightness Sun altitude
Rises 16:56:09 0° 208° (SSW) 3,383 6.6 -6.8°
Reaches altitude 10° 16:58:36 10° 210° (SSW) 2,452 5.9 -7.2°
Maximum altitude 17:04:14 76° 297° (WNW) 869 2.9 -8.1°
Drops below altitude 10° 17:09:54 10° 23° (NNE) 2,465 4.8 -9.1°
Sets 17:12:21 0° 25° (NNE) 3,402 5.5 -9.5°
